UAE707 OMDB-FSIA

Flight info

Callsign UAE707
Flight time N/A
Altitude 34000
Route ANVIX R401 GIDIS G783 UKRAG/N0488F330 L710 DEDSO/N0489F340 R401 SUHIL UM314 IMTIP DCT EPNOR T144 ROUTY ROUTY1D
Aircraft B77W/H-SDE1E2E3FGHIJ2J3J4J5M1RWXY/LB1D1

Departure

Time 2026-04-23 09:37
Airport Dubai International Airport (OMDB)

Arrival

Time N/A
Airport Seychelles International Airport (FSIA)
Time Latitude Longitude Altitude Speed Heading
2026-04-23 08:13 25.24244 55.37177 45 ft 0 kts 30°
2026-04-23 09:18 25.24236 55.37172 45 ft 3 kts 30°
2026-04-23 09:18 25.24223 55.37163 45 ft 2 kts 30°
2026-04-23 09:18 25.24210 55.37155 45 ft 2 kts 33°
2026-04-23 09:18 25.24198 55.37145 45 ft 2 kts 47°
2026-04-23 09:19 25.24189 55.37132 45 ft 2 kts 59°
2026-04-23 09:19 25.24182 55.37117 45 ft 2 kts 70°
2026-04-23 09:19 25.24178 55.37101 45 ft 2 kts 82°
2026-04-23 09:19 25.24177 55.37085 45 ft 2 kts 94°
2026-04-23 09:20 25.24179 55.37069 45 ft 2 kts 105°
2026-04-23 09:20 25.24184 55.37053 45 ft 2 kts 117°
2026-04-23 09:20 25.24188 55.37045 45 ft 1 kts 122°
2026-04-23 09:20 25.24188 55.37044 45 ft 0 kts 123°
2026-04-23 09:25 25.24188 55.37045 45 ft 0 kts 123°
2026-04-23 09:25 25.24185 55.37052 45 ft 3 kts 116°
2026-04-23 09:25 25.24167 55.37092 45 ft 6 kts 116°
2026-04-23 09:25 25.24149 55.37133 45 ft 6 kts 117°
2026-04-23 09:26 25.24137 55.37157 45 ft 3 kts 119°
2026-04-23 09:26 25.24121 55.37189 45 ft 7 kts 120°
2026-04-23 09:26 25.24084 55.37257 45 ft 12 kts 121°
2026-04-23 09:26 25.24032 55.37349 45 ft 14 kts 123°
2026-04-23 09:27 25.23985 55.37436 45 ft 12 kts 115°
2026-04-23 09:27 25.23976 55.37523 45 ft 10 kts 78°
2026-04-23 09:27 25.24008 55.37587 45 ft 8 kts 46°
2026-04-23 09:27 25.24053 55.37626 45 ft 7 kts 35°
2026-04-23 09:28 25.24094 55.37655 45 ft 6 kts 31°
2026-04-23 09:28 25.24137 55.37683 45 ft 8 kts 31°
2026-04-23 09:28 25.24187 55.37716 45 ft 7 kts 31°
2026-04-23 09:28 25.24231 55.37746 45 ft 7 kts 33°
2026-04-23 09:29 25.24276 55.37777 45 ft 7 kts 32°
2026-04-23 09:29 25.24317 55.37805 45 ft 6 kts 32°
2026-04-23 09:29 25.24352 55.37830 45 ft 5 kts 33°
2026-04-23 09:29 25.24387 55.37855 45 ft 6 kts 33°
2026-04-23 09:30 25.24431 55.37888 45 ft 9 kts 35°
2026-04-23 09:30 25.24490 55.37934 45 ft 10 kts 35°
2026-04-23 09:30 25.24545 55.37976 45 ft 9 kts 34°
2026-04-23 09:30 25.24593 55.38012 45 ft 7 kts 34°
2026-04-23 09:31 25.24633 55.38041 45 ft 4 kts 31°
2026-04-23 09:31 25.24637 55.38044 45 ft 0 kts 32°
2026-04-23 09:33 25.24641 55.38046 45 ft 2 kts 32°
2026-04-23 09:34 25.24671 55.38067 45 ft 6 kts 32°
2026-04-23 09:34 25.24708 55.38092 45 ft 5 kts 32°
2026-04-23 09:34 25.24738 55.38110 45 ft 4 kts 22°
2026-04-23 09:34 25.24757 55.38109 45 ft 2 kts 333°
2026-04-23 09:35 25.24766 55.38099 45 ft 2 kts 304°
2026-04-23 09:35 25.24779 55.38074 45 ft 0 kts 302°
2026-04-23 09:35 25.24780 55.38074 45 ft 0 kts 302°
2026-04-23 09:36 25.24796 55.38044 45 ft 13 kts 302°
2026-04-23 09:36 25.24945 55.37775 45 ft 74 kts 301°
2026-04-23 09:36 25.25328 55.37086 45 ft 137 kts 301°
2026-04-23 09:36 25.25926 55.36004 114 ft 184 kts 302°
2026-04-23 09:37 25.26586 55.34782 669 ft 191 kts 301°
2026-04-23 09:37 25.27286 55.33508 1428 ft 196 kts 301°
2026-04-23 09:37 25.27961 55.32247 2107 ft 191 kts 300°
2026-04-23 09:37 25.28686 55.30874 2069 ft 227 kts 298°
2026-04-23 09:38 25.29125 55.29113 2240 ft 251 kts 269°
2026-04-23 09:38 25.28700 55.27253 2929 ft 252 kts 246°
2026-04-23 09:38 25.27926 55.25524 3679 ft 252 kts 244°
2026-04-23 09:38 25.27158 55.23798 4352 ft 254 kts 245°
2026-04-23 09:39 25.26393 55.22022 5076 ft 255 kts 245°
2026-04-23 09:39 25.25649 55.20273 5807 ft 255 kts 245°
2026-04-23 09:39 25.24818 55.18538 6429 ft 258 kts 232°
2026-04-23 09:39 25.23464 55.17282 7025 ft 262 kts 206°
2026-04-23 09:40 25.21688 55.16813 7658 ft 265 kts 183°
2026-04-23 09:40 25.19848 55.16973 8231 ft 271 kts 165°
2026-04-23 09:40 25.18192 55.17961 8784 ft 278 kts 139°
2026-04-23 09:40 25.17037 55.19708 9161 ft 292 kts 118°
2026-04-23 09:41 25.16168 55.21751 9717 ft 297 kts 118°
2026-04-23 09:41 25.15245 55.23824 10187 ft 303 kts 120°
2026-04-23 09:41 25.14285 55.25872 10979 ft 300 kts 120°
2026-04-23 09:41 25.13321 55.27888 11622 ft 302 kts 120°
2026-04-23 09:42 25.12331 55.29946 12236 ft 305 kts 121°
2026-04-23 09:42 25.11340 55.32006 12899 ft 308 kts 121°
2026-04-23 09:42 25.10337 55.34114 13528 ft 312 kts 118°
2026-04-23 09:42 25.09435 55.36311 14094 ft 319 kts 116°
2026-04-23 09:43 25.08543 55.38541 14680 ft 324 kts 116°
2026-04-23 09:43 25.07611 55.40838 15285 ft 330 kts 117°
2026-04-23 09:43 25.06681 55.43143 15796 ft 339 kts 115°
2026-04-23 09:43 25.05735 55.45616 16074 ft 355 kts 115°
2026-04-23 09:44 25.04766 55.48153 16315 ft 372 kts 115°
2026-04-23 09:44 25.03730 55.50850 16629 ft 388 kts 115°
2026-04-23 09:44 25.02652 55.53650 16974 ft 404 kts 115°
2026-04-23 09:44 25.01394 55.56477 17219 ft 418 kts 122°
2026-04-23 09:45 24.99903 55.59269 17624 ft 430 kts 123°
2026-04-23 09:45 24.98374 55.62096 18255 ft 436 kts 123°
2026-04-23 09:45 24.96811 55.64985 18993 ft 438 kts 123°
2026-04-23 09:45 24.95265 55.67842 19676 ft 442 kts 123°
2026-04-23 09:46 24.93607 55.70719 20329 ft 444 kts 128°
2026-04-23 09:46 24.91794 55.73484 20971 ft 448 kts 129°
2026-04-23 09:46 24.89946 55.76265 21561 ft 453 kts 129°
2026-04-23 09:46 24.88089 55.79060 22151 ft 457 kts 129°
2026-04-23 09:47 24.86201 55.81901 22775 ft 460 kts 129°
2026-04-23 09:47 24.84321 55.84731 23316 ft 465 kts 129°
2026-04-23 09:47 24.82280 55.87546 23794 ft 468 kts 136°
2026-04-23 09:47 24.79890 55.89967 24245 ft 471 kts 146°
2026-04-23 09:48 24.77150 55.91949 24721 ft 471 kts 155°
2026-04-23 09:48 24.74169 55.93411 25212 ft 471 kts 164°
2026-04-23 09:48 24.71009 55.94329 25681 ft 471 kts 174°
2026-04-23 09:48 24.67763 55.94677 26126 ft 471 kts 183°
2026-04-23 09:49 24.64481 55.94450 26568 ft 470 kts 192°
2026-04-23 09:49 24.61289 55.93663 27036 ft 470 kts 201°
2026-04-23 09:49 24.58236 55.92331 27508 ft 468 kts 211°
2026-04-23 09:49 24.55448 55.90521 27931 ft 468 kts 219°
2026-04-23 09:50 24.52941 55.88248 28381 ft 467 kts 228°
2026-04-23 09:50 24.50691 55.85702 28848 ft 469 kts 230°
2026-04-23 09:50 24.48390 55.83123 29358 ft 472 kts 229°
2026-04-23 09:50 24.46062 55.80616 30039 ft 471 kts 228°
2026-04-23 09:51 24.43721 55.78175 30827 ft 467 kts 228°
2026-04-23 09:51 24.41331 55.75738 31582 ft 463 kts 228°
2026-04-23 09:51 24.38968 55.73365 32234 ft 460 kts 228°
2026-04-23 09:51 24.36603 55.71021 32780 ft 459 kts 228°
2026-04-23 09:52 24.34228 55.68687 33216 ft 460 kts 227°
2026-04-23 09:52 24.31819 55.66337 33629 ft 460 kts 228°
2026-04-23 09:52 24.29429 55.64022 33857 ft 463 kts 226°
2026-04-23 09:53 24.23951 55.60267 33867 ft 471 kts 210°
2026-04-23 09:53 24.17556 55.58081 33864 ft 482 kts 202°
2026-04-23 09:54 24.11040 55.56148 33865 ft 479 kts 202°
2026-04-23 09:54 24.04586 55.54228 33861 ft 478 kts 202°
2026-04-23 09:55 23.98169 55.52318 33863 ft 482 kts 202°
2026-04-23 09:55 23.91689 55.50397 33857 ft 479 kts 202°
2026-04-23 09:56 23.85241 55.48483 33848 ft 482 kts 202°
2026-04-23 09:56 23.78753 55.46558 33848 ft 480 kts 202°
2026-04-23 09:57 23.72294 55.44641 33844 ft 481 kts 202°
2026-04-23 09:57 23.65851 55.42731 33845 ft 481 kts 201°
2026-04-23 09:58 23.59341 55.40803 33842 ft 481 kts 202°
2026-04-23 09:58 23.52720 55.39370 33837 ft 492 kts 189°
2026-04-23 09:59 23.45834 55.40084 33835 ft 506 kts 171°
2026-04-23 09:59 23.38946 55.42104 33840 ft 511 kts 168°
2026-04-23 10:00 23.33292 55.43927 33833 ft 507 kts 168°
2026-04-23 10:00 23.25327 55.46475 33829 ft 510 kts 168°
2026-04-23 10:01 23.18500 55.48643 33833 ft 511 kts 169°
2026-04-23 10:01 23.11682 55.50800 33830 ft 510 kts 168°
2026-04-23 10:02 23.04838 55.52958 33834 ft 509 kts 169°
2026-04-23 10:02 22.98039 55.55067 33834 ft 510 kts 169°
2026-04-23 10:03 22.91196 55.57167 33838 ft 508 kts 169°
2026-04-23 10:03 22.84350 55.59265 33833 ft 510 kts 169°
2026-04-23 10:04 22.77511 55.61361 33834 ft 509 kts 169°
2026-04-23 10:04 22.70696 55.63447 33830 ft 509 kts 168°
2026-04-23 10:05 22.63866 55.65535 33832 ft 512 kts 169°
2026-04-23 10:05 22.56984 55.67641 33832 ft 510 kts 169°
2026-04-23 10:06 22.50154 55.69732 33830 ft 510 kts 169°
2026-04-23 10:06 22.43303 55.71825 33831 ft 512 kts 169°
2026-04-23 10:07 22.36428 55.73925 33829 ft 511 kts 168°
2026-04-23 10:07 22.29553 55.76022 33828 ft 514 kts 169°
2026-04-23 10:08 22.22603 55.77464 33828 ft 504 kts 179°
2026-04-23 10:08 22.15599 55.78170 33816 ft 505 kts 180°
2026-04-23 10:09 22.05128 55.79208 33807 ft 504 kts 180°
2026-04-23 10:09 21.98120 55.79903 33804 ft 506 kts 180°
2026-04-23 10:10 21.91121 55.80597 33801 ft 505 kts 180°
2026-04-23 10:10 21.84117 55.81292 33795 ft 504 kts 180°
2026-04-23 10:11 21.77091 55.81987 33796 ft 506 kts 180°
2026-04-23 10:11 21.70098 55.82679 33793 ft 505 kts 180°
2026-04-23 10:12 21.63060 55.83371 33797 ft 505 kts 180°
2026-04-23 10:12 21.56042 55.84060 33795 ft 506 kts 180°
2026-04-23 10:13 21.49074 55.84744 33799 ft 505 kts 179°
2026-04-23 10:13 21.42036 55.85434 33799 ft 504 kts 180°
2026-04-23 10:14 21.35019 55.86121 33802 ft 505 kts 179°
2026-04-23 10:14 21.28041 55.86804 33808 ft 504 kts 180°
2026-04-23 10:15 21.20999 55.87490 33813 ft 505 kts 180°
2026-04-23 10:15 21.14006 55.88171 33819 ft 504 kts 180°
2026-04-23 10:16 21.07003 55.88853 33829 ft 505 kts 179°
2026-04-23 10:16 20.99993 55.89534 33840 ft 504 kts 179°
2026-04-23 10:17 20.92988 55.90214 33836 ft 504 kts 179°
2026-04-23 10:17 20.86006 55.90892 33831 ft 506 kts 179°
2026-04-23 10:18 20.78963 55.91575 33831 ft 506 kts 179°
2026-04-23 10:18 20.71928 55.92257 33831 ft 504 kts 179°
2026-04-23 10:19 20.64963 55.92932 33832 ft 506 kts 179°
2026-04-23 10:19 20.57933 55.93612 33833 ft 503 kts 179°
2026-04-23 10:20 20.50919 55.94290 33834 ft 505 kts 179°
2026-04-23 10:20 20.43914 55.94966 33839 ft 506 kts 179°
2026-04-23 10:21 20.36924 55.95641 33837 ft 506 kts 179°
2026-04-23 10:21 20.29888 55.96319 33834 ft 504 kts 179°
2026-04-23 10:22 20.22899 55.96984 33833 ft 506 kts 179°
2026-04-23 10:22 20.15885 55.97651 33828 ft 505 kts 179°
2026-04-23 10:23 20.08897 55.98316 33824 ft 505 kts 179°
2026-04-23 10:23 20.01876 55.98630 33824 ft 502 kts 184°
2026-04-23 10:24 19.94865 55.98758 33828 ft 502 kts 184°
2026-04-23 10:24 19.87878 55.98907 33829 ft 503 kts 183°
2026-04-23 10:25 19.80881 55.99068 33831 ft 502 kts 183°
2026-04-23 10:25 19.73846 55.99236 33847 ft 505 kts 183°
2026-04-23 10:26 19.66821 55.99406 33848 ft 504 kts 183°
2026-04-23 10:26 19.59833 55.99579 33853 ft 503 kts 183°
2026-04-23 10:27 19.52780 55.99753 33852 ft 505 kts 183°
2026-04-23 10:27 19.45752 55.99927 33858 ft 506 kts 183°
2026-04-23 10:28 19.38719 56.00102 33861 ft 507 kts 183°
2026-04-23 10:28 19.31655 56.00278 33865 ft 506 kts 183°
2026-04-23 10:29 19.24589 56.00454 33863 ft 505 kts 183°
2026-04-23 10:29 19.17512 56.00629 33870 ft 508 kts 184°
2026-04-23 10:30 19.10469 56.00805 33871 ft 505 kts 184°
2026-04-23 10:30 19.03399 56.00979 33877 ft 508 kts 183°
2026-04-23 10:31 18.96375 56.00805 33866 ft 502 kts 194°
2026-04-23 10:31 18.89636 55.99185 33861 ft 495 kts 200°
2026-04-23 10:32 18.82959 55.97400 33856 ft 495 kts 200°
2026-04-23 10:32 18.76269 55.95613 33855 ft 494 kts 200°
2026-04-23 10:33 18.69569 55.93825 33869 ft 496 kts 200°
2026-04-23 10:33 18.62904 55.92050 33876 ft 494 kts 200°
2026-04-23 10:34 18.56221 55.90270 33881 ft 495 kts 200°
2026-04-23 10:34 18.49523 55.88489 33884 ft 494 kts 200°
2026-04-23 10:35 18.42846 55.86715 33888 ft 495 kts 200°
2026-04-23 10:35 18.36174 55.84943 33886 ft 495 kts 200°
2026-04-23 10:36 18.29501 55.83173 33894 ft 495 kts 200°
2026-04-23 10:36 18.22773 55.81390 33891 ft 494 kts 200°
2026-04-23 10:37 18.16093 55.79619 33891 ft 497 kts 200°
2026-04-23 10:37 18.09420 55.77855 33890 ft 492 kts 200°
2026-04-23 10:38 18.02726 55.76083 33895 ft 498 kts 200°
2026-04-23 10:38 17.95958 55.74620 33902 ft 499 kts 193°
2026-04-23 10:39 17.89013 55.73724 33879 ft 503 kts 193°
2026-04-23 10:39 17.82063 55.72839 33861 ft 502 kts 193°
2026-04-23 10:40 17.75088 55.71949 33848 ft 503 kts 193°
2026-04-23 10:40 17.68185 55.71068 33850 ft 500 kts 193°
2026-04-23 10:41 17.61248 55.70181 33849 ft 500 kts 193°
2026-04-23 10:41 17.54311 55.69294 33853 ft 501 kts 192°
2026-04-23 10:42 17.47359 55.68407 33850 ft 502 kts 192°
2026-04-23 10:42 17.40386 55.67518 33856 ft 501 kts 193°
2026-04-23 10:43 17.35299 55.66868 33856 ft 502 kts 192°